TimeCDT,TemperatureF,Dew PointF,Humidity,Sea Level PressureIn,VisibilityMPH,Wind Direction,Wind SpeedMPH,Gust SpeedMPH,PrecipitationIn,Events,Conditions,WindDirDegrees,DateUTC
12:52 AM,37.9,34.0,86,30.05,9.0,SSW,8.1,-,N/A,,Clear,200,2013-10-17 05:52:00
1:52 AM,41.0,35.1,79,30.04,10.0,SW,10.4,-,N/A,,Clear,220,2013-10-17 06:52:00
2:52 AM,39.0,35.1,86,30.04,9.0,SW,9.2,-,N/A,,Clear,220,2013-10-17 07:52:00
3:52 AM,39.0,35.1,86,30.03,9.0,SW,9.2,-,N/A,,Clear,220,2013-10-17 08:52:00
4:52 AM,37.9,35.1,89,30.02,8.0,West,10.4,-,N/A,,Clear,270,2013-10-17 09:52:00
5:52 AM,36.0,34.0,93,30.02,5.0,WSW,8.1,-,N/A,,Clear,250,2013-10-17 10:52:00
6:52 AM,37.0,34.0,89,30.04,5.0,WSW,8.1,-,N/A,,Clear,250,2013-10-17 11:52:00
7:52 AM,34.0,30.9,89,30.05,5.0,West,5.8,-,N/A,,Clear,260,2013-10-17 12:52:00
8:52 AM,39.9,32.0,73,30.06,9.0,WNW,12.7,-,N/A,,Clear,300,2013-10-17 13:52:00
9:52 AM,46.0,34.0,63,30.08,10.0,WNW,12.7,-,N/A,,Clear,300,2013-10-17 14:52:00
10:52 AM,54.0,32.0,43,30.06,10.0,NW,9.2,-,N/A,,Clear,320,2013-10-17 15:52:00
11:52 AM,59.0,30.9,35,30.06,10.0,North,9.2,-,N/A,,Clear,350,2013-10-17 16:52:00
12:52 PM,62.1,30.0,30,30.05,10.0,North,11.5,-,N/A,,Clear,360,2013-10-17 17:52:00
1:52 PM,63.0,27.0,26,30.02,10.0,NNW,13.8,18.4,N/A,,Clear,340,2013-10-17 18:52:00
2:52 PM,63.0,27.0,26,30.01,10.0,North,8.1,20.7,N/A,,Clear,350,2013-10-17 19:52:00
3:52 PM,64.0,28.9,27,29.99,10.0,NNE,10.4,18.4,N/A,,Clear,20,2013-10-17 20:52:00
4:52 PM,64.0,27.0,25,29.98,10.0,NNE,12.7,19.6,N/A,,Clear,20,2013-10-17 21:52:00
5:52 PM,62.1,28.9,29,29.99,10.0,NNE,11.5,-,N/A,,Clear,20,2013-10-17 22:52:00
6:52 PM,54.0,30.9,41,30.03,10.0,NNE,6.9,-,N/A,,Clear,30,2013-10-17 23:52:00
7:52 PM,48.0,30.9,52,30.07,10.0,North,3.5,-,N/A,,Clear,10,2013-10-18 00:52:00
8:52 PM,44.1,32.0,63,30.08,10.0,NNE,8.1,-,N/A,,Clear,30,2013-10-18 01:52:00
9:52 PM,42.1,33.1,70,30.08,10.0,NE,9.2,-,N/A,,Clear,40,2013-10-18 02:52:00
10:52 PM,43.0,35.1,74,30.07,10.0,NE,9.2,-,N/A,,Clear,50,2013-10-18 03:52:00
11:52 PM,43.0,35.1,74,30.05,10.0,NE,13.8,-,N/A,,Clear,50,2013-10-18 04:52:00